Regional Weather Roundup
Issued by NWS

Home | Current Version | Previous Version | Text Only | Print | Product List | Glossary On
Versions: 1 2 3 4 5 6 7 8 9 10 11 12 13 14 15 16 17 18 19 20 21 22 23 24 25 26 27 28 29 30 31 32 33 34 35 36 37 38 39 40 41 42 43 44 45 46 47 48 49 50
000
ASUS44 KFWD 041815
RWRTX
NORTH TEXAS HOURLY WEATHER ROUNDUP
NATIONAL WEATHER SERVICE FORT WORTH TX
100 PM CDT SAT JUL 04 2015

NOTE: "FAIR" INDICATES FEW OR NO CLOUDS BELOW 12,000 FEET WITH NO
SIGNIFICANT WEATHER AND/OR OBSTRUCTIONS TO VISIBILITY.

TXZ118-119-041900-
DALLAS/FORT WORTH METROPLEX

CITY           SKY/WX    TMP DP  RH WIND       PRES   REMARKS
DFW AIRPORT    MOSUNNY   90  71  53 S15       29.97F HX  96
6HR MIN TEMP:  78; 6HR MAX TEMP:  91;

DALLAS LOVE    PTSUNNY   91  72  53 S10       29.97F HX  98
6HR MIN TEMP:  79; 6HR MAX TEMP:  91;

FTW MEACHAM    SUNNY     91  74  57 S14G20    29.97F HX 100
6HR MIN TEMP:  77; 6HR MAX TEMP:  91;

DAL-EXECUTIVE  MOSUNNY   87  72  60 S8G16     29.98F HX  93
6HR MIN TEMP:  77; 6HR MAX TEMP:  88;

FTW-ALLIANCE   MOSUNNY   90  72  55 SW10      29.97F HX  97
6HR MIN TEMP:  77; 6HR MAX TEMP:  90;

FTW-NAS-JRB    MOSUNNY   91  73  55 SW13      29.98F HX  99
6HR MIN TEMP:  77; 6HR MAX TEMP:  91;

FTW-SPINKS     MOSUNNY   90  72  55 S7        30.00F HX  96
ARLINGTON      MOSUNNY   89  71  55 S13       29.98F HX  95
6HR MIN TEMP:  77; 6HR MAX TEMP:  90;

GRAND PRAIRIE  MOSUNNY   90  72  55 SW10G16   30.00S HX  96
MESQUITE       MOSUNNY   90  72  55 S9          N/A  HX  96
LANCASTER      MOSUNNY   87  70  56 S12       30.00F HX  92
6HR MIN TEMP:  75; 6HR MAX TEMP:  88;

$$

TXZ091>094-102>105-117-120-121-131>134-041900-
NORTH CENTRAL TEXAS

CITY           SKY/WX    TMP DP  RH WIND       PRES   REMARKS
SHRMAN/DENISON MOSUNNY   91  76  61 S7        29.97F HX 102
6HR MIN TEMP:  77; 6HR MAX TEMP:  91;

GAINESVILLE    MOSUNNY   90  71  54 S5        29.98F HX  96
6HR MIN TEMP:  71; 6HR MAX TEMP:  90;

BRIDGEPORT     SUNNY     91  72  54 S7        29.99S HX  98
6HR MIN TEMP:  76; 6HR MAX TEMP:  91;

DECATUR        SUNNY     89  68  49 SW8       29.99S HX  92
6HR MIN TEMP:  76; 6HR MAX TEMP:  89;

DENTON         SUNNY     90  73  57 SW9       29.97F HX  98
6HR MIN TEMP:  76; 6HR MAX TEMP:  90;

MCKINNEY       SUNNY     90  73  57 S12       29.97F HX  98
6HR MIN TEMP:  78; 6HR MAX TEMP:  90;

GREENVILLE     MOSUNNY   90  72  55 S9        29.98F HX  96
ROCKWALL       SUNNY     89  74  60 SW13      29.97F HX  97
6HR MIN TEMP:  77; 6HR MAX TEMP:  89;

TERRELL        MOSUNNY   87  73  62 SW15      29.99F HX  94
6HR MIN TEMP:  77; 6HR MAX TEMP:  88;

WAXAHACHIE     MOSUNNY   87  73  64 S15       30.01F HX  94
6HR MIN TEMP:  75; 6HR MAX TEMP:  87;

CLEBURNE       MOSUNNY   90  75  62 S13       30.02S HX 100
GRANBURY         N/A     90  71  52 S8        30.00F HX  96
6HR MIN TEMP:  77; 6HR MAX TEMP:  90;

$$

TXZ083>090-098>101-113>116-127>130-139>142-154-155-041900-
WESTERN NORTH TEXAS

CITY           SKY/WX    TMP DP  RH WIND       PRES   REMARKS
WICHITA FALLS  SUNNY     91  70  49 VRB5      29.95F HX  96
6HR MIN TEMP:  73; 6HR MAX TEMP:  92; 6HR PCP: TRACE;

WF-KICKAPOO    SUNNY     92  66  41 SW9       29.96F HX  95
6HR MIN TEMP:  75; 6HR MAX TEMP:  93;

VERNON         SUNNY     96  59  29 S9        29.96F HX  95
ABILENE        PTSUNNY   88  65  46 VRB5      30.01F HX  90
6HR MIN TEMP:  73; 6HR MAX TEMP:  90;

ABILENE-DYESS  PTSUNNY   88  70  54 S8        30.00F HX  92
6HR MIN TEMP:  72; 6HR MAX TEMP:  89;

BRECKENRIDGE   MOSUNNY   90  66  44 CALM      29.99F HX  92
6HR MIN TEMP:  75; 6HR MAX TEMP:  91;

GRAHAM         SUNNY     91  70  50 SE5       29.97F HX  96
6HR MIN TEMP:  74; 6HR MAX TEMP:  91;

MINERAL WELLS  MOSUNNY   89  71  55 S10       29.97F HX  95
6HR MIN TEMP:  74; 6HR MAX TEMP:  89;

STEPHENVILLE   MOSUNNY   87  70  57 S6        30.05S HX  91
6HR MIN TEMP:  73; 6HR MAX TEMP:  87;

COMANCHE       CLOUDY    85  71  62 SW9       30.04S HX  91
6HR MIN TEMP:  72; 6HR MAX TEMP:  86;

BROWNWOOD      MOSUNNY   88  66  48 S12G17    30.03S HX  90
COLEMAN        PTSUNNY   87  69  55 S12       30.04S HX  91
6HR MIN TEMP:  69; 6HR MAX TEMP:  87;

BRADY          PTSUNNY   86  63  45 N10       30.04S
$$

TXZ143>147-156>162-174-175-041900-
CENTRAL TEXAS

CITY           SKY/WX    TMP DP  RH WIND       PRES   REMARKS
WACO           PTSUNNY   91  70  49 S14       30.01S HX  96
6HR MIN TEMP:  75; 6HR MAX TEMP:  91;

WACO-TSTC      PTSUNNY   90  72  55 SW12      30.01F HX  96
WACO-MCGREGOR  CLOUDY    88  72  58 S9G17     30.02F HX  94
6HR MIN TEMP:  73; 6HR MAX TEMP:  88;

HILLSBORO      MOSUNNY   86  70  59 S14G23    30.01F HX  91
6HR MIN TEMP:  74; 6HR MAX TEMP:  86;

CORSICANA      MOSUNNY   88  72  58 SW13      30.02F HX  94
6HR MIN TEMP:  77; 6HR MAX TEMP:  88;

MEXIA          MOSUNNY   87  74  65 S8G21     30.01F HX  96
6HR MIN TEMP:  75; 6HR MAX TEMP:  87;

HEARNE         PTSUNNY   88  74  64 S9        30.02F HX  96
6HR MIN TEMP:  74; 6HR MAX TEMP:  89;

CAMERON        CLOUDY    87  74  64 S7        30.01F HX  95
6HR MIN TEMP:  76; 6HR MAX TEMP:  88;

TEMPLE         CLOUDY    86  70  58 S10       30.01F HX  90
6HR MIN TEMP:  73; 6HR MAX TEMP:  86;

KILLEEN        PTSUNNY   86  71  60 S9        30.01F HX  91
6HR MIN TEMP:  72; 6HR MAX TEMP:  88;

KILLEEN-SKYLRK PTSUNNY   88  72  58 S8G16     30.01F HX  94
6HR MIN TEMP:  72; 6HR MAX TEMP:  88;

FORT HOOD      PTSUNNY   87  71  58 S13       30.01S HX  93
6HR MIN TEMP:  73; 6HR MAX TEMP:  88; 6HR PCP: TRACE;

GATESVILLE     PTSUNNY   90  70  51 S8        30.04F HX  95
HAMILTON       CLOUDY    85  68  56 S10       30.04F
6HR MIN TEMP:  73; 6HR MAX TEMP:  88;

LAMPASAS       PTSUNNY   90  73  58 S8        30.02S HX  98
6HR MIN TEMP:  71; 6HR MAX TEMP:  91;

$$

TXZ095>097-106>112-122>126-135>138-148>153-164>167-041900-
EAST TEXAS

CITY           SKY/WX    TMP DP  RH WIND       PRES   REMARKS
PARIS          MOSUNNY   90  72  55 SW14      29.96F HX  96
6HR MIN TEMP:  75; 6HR MAX TEMP:  90;

SULPHUR SPRNGS PTSUNNY   88  73  62 SW14      30.00F HX  95
6HR MIN TEMP:  78; 6HR MAX TEMP:  89;

MOUNT PLEASANT MOSUNNY   89  73  60 W8        29.98F HX  96
6HR MIN TEMP:  76; 6HR MAX TEMP:  89;

GILMER         PTSUNNY   86  73  63 S9        29.98F HX  93
6HR MIN TEMP:  75; 6HR MAX TEMP:  86;

MINEOLA        PTSUNNY   88  73  62 SW10G17   30.00F HX  96
TYLER          MOSUNNY   88  72  58 W12       30.01F HX  94
6HR MIN TEMP:  78; 6HR MAX TEMP:  89;

LONGVIEW       PTSUNNY   89  72  56 SW13      29.98F HX  96
6HR MIN TEMP:  81; 6HR MAX TEMP:  91;

MARSHALL       PTSUNNY   89  74  61 SW9G16    30.00F HX  97
6HR MIN TEMP:  78; 6HR MAX TEMP:  89;

ATHENS         PTSUNNY   86  72  62 W8        30.00F HX  92
PALESTINE      PTSUNNY   89  71  56 S14       30.03F HX  94
JACKSONVILLE   MOSUNNY   89  69  52 S9G21     30.04F HX  93
HENDERSON      MOSUNNY   87  72  62 SW7       30.01F HX  93
6HR MIN TEMP:  77; 6HR MAX TEMP:  87;

CENTER         FAIR      87  72  61 SW10      30.00F HX  93
6HR MIN TEMP:  76; 6HR MAX TEMP:  87;

NACOGDOCHES    MOSUNNY  N/A N/A N/A SW9       30.01F
LUFKIN         MOSUNNY   92  72  51 SW10      30.01F HX  99
6HR MIN TEMP:  78; 6HR MAX TEMP:  92;

$$

SUPPLEMENTAL OBSERVATIONS (CENTRAL)

CITY           SKY/WX    TMP DP  RH WIND       PRES   REMARKS
LAKE TEXOMA      N/A     88  72  58 W8          N/A  HX  94
CADDO GRASSLND   N/A     91  73  55 SW7         N/A  HX 100
PAT MAYSE LAKE   N/A     88  75  66 SW8         N/A  HX  97
GREENVILLE       N/A     88  72  58 SW9         N/A  HX  94
CEDAR HILL       N/A     90  72  55 S7          N/A  HX  96
LAKE LIMESTONE   N/A     88  72  58 S10         N/A  HX  94
MCGREGOR         N/A     88  70  55 S9G17       N/A  HX  92
TEMPLE           N/A     88  72  58 S13         N/A  HX  94
$$

SUPPLEMENTAL OBSERVATIONS (WEST)

CITY           SKY/WX    TMP DP  RH WIND       PRES   REMARKS



USA.gov is the U.S. government's official web portal to all federal, state and local government web resources and services.